Location: Auttagershofen
(48.1940°N, 10.0237°E)
Time: 14:48:22
(UTC+00:00)

Lacrosse 4 Rocket - Visible Passes

Search period start: 19 April 2026 00:00
Search period end: 29 April 2026 00:00
Orbit: 508 x 565 km, 68.0° (Epoch: 19 April)

Date Brightness Start Highest point End Pass type
(mag) Time Alt. Az. Time Alt. Az. Time Alt. Az.
24 Apr 4.2 03:37:36 10° SE 03:39:10 12° ESE 03:40:44 10° E visible
25 Apr 4.1 03:28:02 10° SE 03:30:05 14° ESE 03:32:10 10° ENE visible
26 Apr 3.9 03:18:35 10° SE 03:21:00 16° ESE 03:23:28 10° ENE visible
27 Apr 3.8 03:09:13 10° SSE 03:11:56 18° ESE 03:14:41 10° ENE visible
28 Apr 3.6 02:59:54 10° SSE 03:02:51 21° ESE 03:05:52 10° ENE visible
